DW6455 Orivesi FI current weather conditions

sailwx.info

Wind from 039 at 1 knots gusting 5

Air temperature 4.4° C
Dewpoint 2.5° C

Last reported at 2018-Apr-22 10:07 UTC.
Time now 2018-Apr-22 10:53 UTC

Location: N 61°39' E 024°21'.
View on Google Maps.

See reports from other nearby stations

  
Tides and Currents Weather Stations Pressure Air Temp Water Temp Dewpoint Dewpoint Depression Visibility Wind Speed Wind Dir Waves Ship Positions
date/time (UTC)wind fromknots sea level pressurealtimeterstation pressurevisibilityair tempwater tempwave heightnotes
2018-Apr-22 10:07 039 1 gusting 5 4.4
2018-Apr-22 10:02 070 1 gusting 5 4.4
2018-Apr-22 09:57 044 1 gusting 4 4.4
2018-Apr-22 09:52 097 1 gusting 4 4.4
2018-Apr-22 09:47 092 1 gusting 4 3.9
2018-Apr-22 09:42 065 2 gusting 5 3.9
2018-Apr-22 09:37 058 2 gusting 5 3.9
2018-Apr-22 09:32 062 2 gusting 4 3.9
2018-Apr-22 09:27 062 2 gusting 4 3.9
2018-Apr-22 09:22 066 2 gusting 6 3.9
2018-Apr-22 09:17 057 2 gusting 6 3.9
2018-Apr-22 09:12 051 3 gusting 6 3.9
2018-Apr-22 09:07 052 3 gusting 6 3.3
2018-Apr-22 09:02 049 3 gusting 6 3.3
2018-Apr-22 08:57 053 3 gusting 6 3.3
2018-Apr-22 08:52 066 3 gusting 6 3.3
2018-Apr-22 08:47 173 3 gusting 6 3.3
2018-Apr-22 08:42 111 3 gusting 8 3.9
2018-Apr-22 08:37 071 2 gusting 8 3.9
2018-Apr-22 08:32 106 2 gusting 8 4.4
2018-Apr-22 08:27 115 2 gusting 8 4.4
2018-Apr-22 08:22 055 3 gusting 8 4.4
2018-Apr-22 08:17 047 3 gusting 8 4.4
2018-Apr-22 08:12 057 3 gusting 6 3.9
2018-Apr-22 08:07 103 3 gusting 6 3.9
2018-Apr-22 08:02 080 3 gusting 6 3.9
2018-Apr-22 07:57 129 2 gusting 6 3.9
2018-Apr-22 07:52 128 2 gusting 7 3.9
2018-Apr-22 07:47 109 2 gusting 7 3.9
2018-Apr-22 07:42 057 3 gusting 7 3.9
2018-Apr-22 07:37 121 2 gusting 7 3.9
2018-Apr-22 07:32 055 2 gusting 6 4.4
2018-Apr-22 07:27 132 3 gusting 6 4.4
2018-Apr-22 07:22 131 3 gusting 6 3.9
2018-Apr-22 07:17 137 2 gusting 6 3.9
2018-Apr-22 07:12 136 2 gusting 6 3.9
2018-Apr-22 07:07 116 2 gusting 6 3.9
2018-Apr-22 07:02 134 2 gusting 7 3.3
2018-Apr-22 06:57 134 3 gusting 7 3.3
2018-Apr-22 06:52 130 3 gusting 7 2.8
2018-Apr-22 06:47 135 3 gusting 7 2.8
2018-Apr-22 06:42 067 3 gusting 6 2.8
2018-Apr-22 06:38 134 2 gusting 6 2.8
2018-Apr-22 06:32 103 2 gusting 9 2.8
2018-Apr-22 06:27 088 3 gusting 9 2.8
2018-Apr-22 06:22 135 4 gusting 9 2.8
2018-Apr-22 06:17 071 4 gusting 9 2.8
2018-Apr-22 06:12 071 3 gusting 8 2.8
2018-Apr-22 06:07 062 3 gusting 8 2.8
2018-Apr-22 06:02 080 3 gusting 10 2.8
2018-Apr-22 05:57 074 3 gusting 10 2.8
2018-Apr-22 05:52 092 4 gusting 10 2.8
2018-Apr-22 05:47 082 4 gusting 10 2.8
2018-Apr-22 05:42 071 3 gusting 5 2.8
2018-Apr-22 05:37 054 2 gusting 5 2.8
2018-Apr-22 05:32 059 2 gusting 6 2.8
2018-Apr-22 05:27 057 2 gusting 6 2.8
2018-Apr-22 05:22 060 3 gusting 7 2.8
2018-Apr-22 05:17 072 2 gusting 7 2.8
2018-Apr-22 05:12 070 2 gusting 9 2.8
2018-Apr-22 05:07 098 3 gusting 9 2.8
2018-Apr-22 05:02 045 4 gusting 7 2.8
2018-Apr-22 04:57 047 3 gusting 7 2.8
2018-Apr-22 04:52 055 3 gusting 9 2.8
2018-Apr-22 04:47 063 4 gusting 9 2.8
2018-Apr-22 04:42 042 4 gusting 7 3.3
2018-Apr-22 04:37 065 3 gusting 7 3.3
2018-Apr-22 04:32 078 3 gusting 6 3.9
2018-Apr-22 04:27 094 3 gusting 6 3.9
2018-Apr-22 04:22 014 3 gusting 6 3.9
2018-Apr-22 04:17 009 3 gusting 6 3.9
2018-Apr-22 04:12 347 3 gusting 6 3.9
2018-Apr-22 04:07 355 3 gusting 6 3.9
2018-Apr-22 04:02 350 3 gusting 6 3.9
2018-Apr-22 03:57 355 3 gusting 5 3.9
2018-Apr-22 03:52 355 3 gusting 5 3.9
2018-Apr-22 03:47 351 3 gusting 5 3.9
2018-Apr-22 03:42 355 3 gusting 5 3.9
2018-Apr-22 03:37 346 2 gusting 6 3.9
2018-Apr-22 03:32 355 2 gusting 6 3.9
2018-Apr-22 03:27 355 2 gusting 6 3.3
2018-Apr-22 03:22 005 2 gusting 4 3.3
2018-Apr-22 03:17 005 2 gusting 4 3.3
2018-Apr-22 03:12 005 1 gusting 6 3.3
2018-Apr-22 03:07 349 2 gusting 6 3.3
2018-Apr-22 03:02 349 3 gusting 6 3.3
2018-Apr-22 02:57 348 3 gusting 6 3.3
2018-Apr-22 02:52 355 2 gusting 3 3.3
2018-Apr-22 02:47 329 2 gusting 3 3.3
2018-Apr-22 02:42 329 1 gusting 2 3.3
2018-Apr-22 02:37 329 0 gusting 2 3.3
2018-Apr-22 02:32 329 0 gusting 0 3.3
2018-Apr-22 02:27 329 3.3
2018-Apr-22 02:22 329 3.3
2018-Apr-22 02:17 329 3.3
2018-Apr-22 02:12 329 3.3
2018-Apr-22 02:07 329 3.3
2018-Apr-22 02:02 329 3.3
2018-Apr-22 01:58 329 3.3
2018-Apr-22 01:52 329 3.3
2018-Apr-22 01:47 329 3.3
2018-Apr-22 01:42 329 3.3
2018-Apr-22 01:37 329 3.3
2018-Apr-22 01:32 329 0 gusting 2 3.3
2018-Apr-22 01:27 329 0 gusting 2 3.3
2018-Apr-22 01:22 325 0 gusting 3 3.3
2018-Apr-22 01:17 325 0 gusting 3 3.3
2018-Apr-22 01:12 325 3.3
2018-Apr-22 01:07 325 3.3
2018-Apr-22 01:02 325 0 gusting 5 3.3
2018-Apr-22 00:57 325 0 gusting 5 3.3
2018-Apr-22 00:52 325 0 gusting 2 3.9
2018-Apr-22 00:47 320 0 gusting 2 3.9
2018-Apr-22 00:42 320 0 gusting 3 3.9
2018-Apr-22 00:37 320 0 gusting 3 3.9
2018-Apr-22 00:32 320 0 gusting 3 3.9
2018-Apr-22 00:27 320 0 gusting 3 3.9
2018-Apr-22 00:22 320 0 gusting 3 3.9
2018-Apr-22 00:17 320 0 gusting 3 3.9
2018-Apr-22 00:12 320 0 gusting 5 3.9
2018-Apr-22 00:07 320 1 gusting 5 3.9
2018-Apr-22 00:02 320 1 gusting 5 3.9
2018-Apr-21 23:57 321 1 gusting 5 3.9
2018-Apr-21 23:52 320 1 gusting 5 3.9
2018-Apr-21 23:47 315 1 gusting 5 3.9
2018-Apr-21 23:42 315 1 gusting 4 4.4
2018-Apr-21 23:37 335 0 gusting 4 4.4
2018-Apr-21 23:32 332 1 gusting 6 4.4
2018-Apr-21 23:27 327 1 gusting 6 4.4
2018-Apr-21 23:22 327 1 gusting 4 4.4
2018-Apr-21 23:17 296 0 gusting 4 4.4
2018-Apr-21 23:12 335 0 gusting 4 4.4
2018-Apr-21 23:07 306 0 gusting 4 4.4
2018-Apr-21 23:02 330 0 gusting 4 4.4
2018-Apr-21 22:57 339 0 gusting 4 5.0
2018-Apr-21 22:52 335 0 gusting 4 5.0
2018-Apr-21 22:47 348 0 gusting 4 5.0
2018-Apr-21 22:42 348 0 gusting 5 5.0
2018-Apr-21 22:37 349 0 gusting 5 5.0
2018-Apr-21 22:32 327 1 gusting 6 5.0
2018-Apr-21 22:27 289 1 gusting 6 5.0
2018-Apr-21 22:22 329 2 gusting 6 5.0
2018-Apr-21 22:17 317 1 gusting 6 5.0
2018-Apr-21 22:12 344 1 gusting 5 5.0
2018-Apr-21 22:07 333 1 gusting 5 5.0
2018-Apr-21 22:02 333 1 gusting 5 5.0
2018-Apr-21 21:57 332 1 gusting 5 5.0
2018-Apr-21 21:52 329 0 gusting 5 5.0
2018-Apr-21 21:47 326 0 gusting 10 5.0
2018-Apr-21 21:42 329 1 gusting 10 5.0
2018-Apr-21 21:37 326 2 gusting 7 5.0
2018-Apr-21 21:32 296 3 gusting 7 5.0
2018-Apr-21 21:27 336 2 gusting 5 5.0
2018-Apr-21 21:22 5.0
2018-Apr-21 21:17 313 0 gusting 2 5.0
2018-Apr-21 21:12 312 0 gusting 2 5.0
2018-Apr-21 21:07 312 0 gusting 2 5.0
2018-Apr-21 21:02 312 0 gusting 2 5.0
2018-Apr-21 20:57 312 0 gusting 2 5.0
2018-Apr-21 20:52 312 0 gusting 3 5.0
2018-Apr-21 20:47 311 0 gusting 4 5.0
2018-Apr-21 20:42 311 0 gusting 4 5.0
2018-Apr-21 20:37 311 0 gusting 8 5.0
2018-Apr-21 20:32 306 5.0
2018-Apr-21 20:27 317 0 gusting 8 5.0
2018-Apr-21 20:22 317 1 gusting 8 5.0
2018-Apr-21 20:17 307 2 gusting 7 5.0
2018-Apr-21 20:12 316 3 gusting 7 5.0
2018-Apr-21 20:07 308 3 gusting 6 5.0
2018-Apr-21 20:02 327 2 gusting 6 5.0
2018-Apr-21 19:57 340 1 gusting 7 5.0
2018-Apr-21 19:52 333 2 gusting 7 5.0
2018-Apr-21 19:47 327 2 gusting 3 5.0
2018-Apr-21 19:42 335 1 gusting 3 5.0
2018-Apr-21 19:37 309 0 gusting 6 5.0
2018-Apr-21 19:32 331 0 gusting 6 5.0
2018-Apr-21 19:28 331 0 gusting 8 5.0
2018-Apr-21 19:22 331 1 gusting 8 5.0
2018-Apr-21 19:17 331 1 gusting 6 5.0
2018-Apr-21 19:12 328 2 gusting 6 5.6
2018-Apr-21 19:07 330 2 gusting 6 5.6
2018-Apr-21 19:02 340 2 gusting 6 5.6
2018-Apr-21 18:57 340 2 gusting 10 5.6
2018-Apr-21 18:52 340 2 gusting 10 5.6
2018-Apr-21 18:47 340 3 gusting 11 6.1
2018-Apr-21 18:42 302 4 gusting 11 6.1
2018-Apr-21 18:37 342 3 gusting 9 6.1
2018-Apr-21 18:32 355 2 gusting 9 6.1
2018-Apr-21 18:27 336 2 gusting 9 6.1
2018-Apr-21 18:22 323 3 gusting 9 6.1
2018-Apr-21 18:17 325 3 gusting 11 6.7
2018-Apr-21 18:12 319 3 gusting 11 6.7
2018-Apr-21 18:07 309 3 gusting 10 6.7
2018-Apr-21 18:02 318 3 gusting 10 6.7
2018-Apr-21 17:57 325 2 gusting 6 6.7
2018-Apr-21 17:52 303 1 gusting 6 6.7
2018-Apr-21 17:47 309 1 gusting 9 6.7
2018-Apr-21 17:42 344 1 gusting 9 6.7
2018-Apr-21 17:37 300 2 gusting 9 6.7
2018-Apr-21 17:32 298 4 gusting 9 6.7
2018-Apr-21 17:27 348 3 gusting 6 6.7
2018-Apr-21 17:22 319 2 gusting 6 7.2
2018-Apr-21 17:17 327 0 gusting 2 7.2
2018-Apr-21 17:12 330 7.2
2018-Apr-21 17:07 330 7.2
2018-Apr-21 17:02 330 7.2
2018-Apr-21 16:57 330 7.2
2018-Apr-21 16:52 330 7.2
2018-Apr-21 16:47 329 7.2
2018-Apr-21 16:42 330 0 gusting 4 7.2
2018-Apr-21 16:37 330 0 gusting 7 7.2
2018-Apr-21 16:32 344 1 gusting 7 7.2
2018-Apr-21 16:27 345 2 gusting 9 7.2
2018-Apr-21 16:22 345 2 gusting 9 7.2
2018-Apr-21 16:17 336 3 gusting 13 7.2
2018-Apr-21 16:12 334 3 gusting 13 7.2
2018-Apr-21 16:07 331 3 gusting 6 7.2
2018-Apr-21 16:02 329 3 gusting 6 7.2
2018-Apr-21 15:57 304 2 gusting 6 7.8
2018-Apr-21 15:52 351 2 gusting 6 7.8
2018-Apr-21 15:47 288 2 gusting 6 7.8
2018-Apr-21 15:42 298 1 gusting 6 7.8
2018-Apr-21 15:37 301 1 gusting 6 7.8
2018-Apr-21 15:32 301 2 gusting 8 7.8
2018-Apr-21 15:27 306 2 gusting 8 7.8
2018-Apr-21 15:22 347 3 gusting 9 7.8
2018-Apr-21 15:17 333 3 gusting 9 7.8
2018-Apr-21 15:12 298 2 gusting 10 7.8
2018-Apr-21 15:07 327 2 gusting 10 7.8
2018-Apr-21 15:02 300 3 gusting 11 7.8
2018-Apr-21 14:57 305 3 gusting 11 7.8
2018-Apr-21 14:52 338 5 gusting 11 7.8
2018-Apr-21 14:47 333 5 gusting 11 7.8
2018-Apr-21 14:42 336 3 gusting 8 7.8
2018-Apr-21 14:37 324 3 gusting 8 7.2
2018-Apr-21 14:32 330 3 gusting 10 7.2
2018-Apr-21 14:27 329 3 gusting 10 7.8
2018-Apr-21 14:22 296 4 gusting 18 7.8
2018-Apr-21 14:17 300 6 gusting 18 8.3
2018-Apr-21 14:12 287 6 gusting 14 8.9
2018-Apr-21 14:07 300 6 gusting 14 9.4
2018-Apr-21 14:02 329 4 gusting 8 10.0
2018-Apr-21 13:57 292 3 gusting 8 10.0
2018-Apr-21 13:52 304 2 gusting 9 10.0
2018-Apr-21 13:47 319 2 gusting 9 9.4
2018-Apr-21 13:42 329 3 gusting 9 9.4
2018-Apr-21 13:37 325 3 gusting 9 9.4
2018-Apr-21 13:32 297 3 gusting 10 9.4
2018-Apr-21 13:27 302 4 gusting 10 9.4
2018-Apr-21 13:22 306 3 gusting 8 9.4
2018-Apr-21 13:17 330 2 gusting 8 9.4
2018-Apr-21 13:12 294 2 gusting 7 8.9
2018-Apr-21 13:07 319 2 gusting 7 8.9
2018-Apr-21 13:02 338 2 gusting 6 8.9
2018-Apr-21 12:57 331 2 gusting 6 8.3
2018-Apr-21 12:52 313 1 gusting 6 8.3
2018-Apr-21 12:47 333 0 gusting 6 8.3
2018-Apr-21 12:42 350 0 gusting 14 8.3
2018-Apr-21 12:37 311 1 gusting 14 8.3
2018-Apr-21 12:32 311 3 gusting 14 8.3
2018-Apr-21 12:27 336 6 gusting 14 8.9
2018-Apr-21 12:22 333 6 gusting 12 9.4
2018-Apr-21 12:17 282 6 gusting 12 10.0
2018-Apr-21 12:12 298 6 gusting 11 10.6
2018-Apr-21 12:07 342 6 gusting 11 10.0
2018-Apr-21 12:02 310 6 gusting 15 10.0
2018-Apr-21 11:57 331 6 gusting 15 10.0
2018-Apr-21 11:52 340 6 gusting 13 10.0
2018-Apr-21 11:47 017 6 gusting 13 10.0
2018-Apr-21 11:42 338 5 gusting 13 10.0
2018-Apr-21 11:37 324 5 gusting 13 10.0
2018-Apr-21 11:32 302 5 gusting 9 10.0
2018-Apr-21 11:27 337 5 gusting 9 10.6
2018-Apr-21 11:22 338 4 gusting 11 10.6
2018-Apr-21 11:17 312 3 gusting 11 10.6
2018-Apr-21 11:12 306 5 gusting 11 10.6
2018-Apr-21 11:07 349 4 gusting 11 10.6
2018-Apr-21 11:02 318 3 gusting 10 10.6
2018-Apr-21 10:57 355 3 gusting 10 10.0
2018-Apr-21 10:52 333 3 gusting 13 10.0
2018-Apr-21 10:47 301 5 gusting 13 10.0
2018-Apr-21 10:42 348 6 gusting 12 10.0
2018-Apr-21 10:37 332 5 gusting 12 10.0
2018-Apr-21 10:32 355 4 gusting 13 10.0
2018-Apr-21 10:27 339 4 gusting 13 10.0
2018-Apr-21 10:22 327 6 gusting 14 10.0
2018-Apr-21 10:17 307 6 gusting 14 9.4
2018-Apr-21 10:12 350 5 gusting 13 9.4
2018-Apr-21 10:07 300 5 gusting 13 9.4
2018-Apr-21 10:02 304 5 gusting 13 9.4
2018-Apr-21 09:57 333 6 gusting 13 9.4
2018-Apr-21 09:52 320 6 gusting 13 9.4
2018-Apr-21 09:47 340 6 gusting 15 9.4
2018-Apr-21 09:42 297 5 gusting 15 9.4
2018-Apr-21 09:37 342 6 gusting 13 9.4
2018-Apr-21 09:32 330 5 gusting 13 8.9
2018-Apr-21 09:27 317 5 gusting 13 8.9
2018-Apr-21 09:22 307 5 gusting 13 8.9
2018-Apr-21 09:17 287 5 gusting 12 8.3
2018-Apr-21 09:12 313 4 gusting 12 8.3
2018-Apr-21 09:07 317 4 gusting 13 7.8
2018-Apr-21 09:02 319 4 gusting 13 7.8
2018-Apr-21 08:57 306 4 gusting 14 7.8
2018-Apr-21 08:52 347 4 gusting 14 7.8
2018-Apr-21 08:47 313 4 gusting 14 7.8
2018-Apr-21 08:42 296 6 gusting 14 7.2
2018-Apr-21 08:37 271 6 gusting 10 7.2
2018-Apr-21 08:32 322 5 gusting 10 7.2
2018-Apr-21 08:27 290 4 gusting 13 7.2
2018-Apr-21 08:22 321 3 gusting 13 7.2
2018-Apr-21 08:17 300 3 gusting 13 7.2
2018-Apr-21 08:12 301 5 gusting 13 7.2
2018-Apr-21 08:07 325 4 gusting 11 7.2
2018-Apr-21 08:02 331 2 gusting 11 7.2
2018-Apr-21 07:57 342 4 gusting 12 7.2
2018-Apr-21 07:52 291 4 gusting 12 7.2
2018-Apr-21 07:47 321 5 gusting 12 7.2
2018-Apr-21 07:42 338 5 gusting 12 6.7
2018-Apr-21 07:37 348 4 gusting 7 6.7
2018-Apr-21 07:32 332 4 gusting 7 6.7
2018-Apr-21 07:27 329 3 gusting 7 6.7
2018-Apr-21 07:22 317 3 gusting 7 6.7
2018-Apr-21 07:18 347 3 gusting 7 6.7
2018-Apr-21 07:12 336 3 gusting 7 6.7
2018-Apr-21 07:07 329 2 gusting 7 6.1
2018-Apr-21 07:02 340 2 gusting 7 6.1
2018-Apr-21 06:57 314 2 gusting 8 6.1
2018-Apr-21 06:52 338 2 gusting 8 6.1
2018-Apr-21 06:47 355 3 gusting 7 6.1
2018-Apr-21 06:42 350 3 gusting 7 6.1
2018-Apr-21 06:37 333 2 gusting 5 6.1
2018-Apr-21 06:32 343 2 gusting 5 6.1
2018-Apr-21 06:27 342 2 gusting 9 6.1
2018-Apr-21 06:22 342 2 gusting 9 6.1
2018-Apr-21 06:17 355 3 gusting 9 6.1
2018-Apr-21 06:12 351 4 gusting 9 6.1
2018-Apr-21 06:07 340 4 gusting 10 6.1
2018-Apr-21 06:02 6.1
2018-Apr-21 05:57 340 4 gusting 10 6.1
2018-Apr-21 05:52 332 6 gusting 10 6.1
2018-Apr-21 05:47 6.1
2018-Apr-21 05:42 350 6 gusting 12 5.6
2018-Apr-21 05:37 329 6 gusting 10 5.6
2018-Apr-21 05:32 347 5 gusting 10 5.6
2018-Apr-21 05:27 342 4 gusting 13 5.6
2018-Apr-21 05:22 350 5 gusting 13 5.6
2018-Apr-21 05:17 343 6 gusting 13 5.6
2018-Apr-21 05:12 355 6 gusting 13 5.6
2018-Apr-21 05:07 355 6 gusting 9 5.6
2018-Apr-21 05:02 5.6
2018-Apr-21 04:57 5.6
2018-Apr-21 04:52 329 5 gusting 11 5.6
2018-Apr-21 04:47 018 5 gusting 11 5.6
2018-Apr-21 04:42 355 5 gusting 11 5.6
2018-Apr-21 04:37 355 6 gusting 12 5.6
2018-Apr-21 04:32 023 6 gusting 12 5.6
2018-Apr-21 04:27 350 6 gusting 12 5.6
2018-Apr-21 04:22 013 6 gusting 12 5.6
2018-Apr-21 04:17 5.6
2018-Apr-21 04:12 351 6 gusting 13 5.6
2018-Apr-21 04:07 005 6 gusting 15 5.6
2018-Apr-21 04:02 013 6 gusting 15 5.6
2018-Apr-21 03:57 005 7 gusting 15 5.6
2018-Apr-21 03:52 340 7 gusting 13 5.6
2018-Apr-21 03:47 010 6 gusting 13 5.6
2018-Apr-21 03:42 005 6 gusting 12 5.6
2018-Apr-21 03:37 344 6 gusting 12 5.6
2018-Apr-21 03:32 355 6 gusting 11 5.6
2018-Apr-21 03:27 355 6 gusting 11 5.6
2018-Apr-21 03:22 347 6 gusting 12 5.6
2018-Apr-21 03:17 355 6 gusting 12 5.6
2018-Apr-21 03:12 020 6 gusting 12 5.6
2018-Apr-21 03:07 319 7 gusting 12 5.6
2018-Apr-21 03:02 348 7 gusting 13 6.1
2018-Apr-21 02:57 005 7 gusting 13 6.1
2018-Apr-21 02:52 351 7 gusting 13 6.1
2018-Apr-21 02:47 6.1
2018-Apr-21 02:42 026 6 gusting 13 6.1
2018-Apr-21 02:37 009 6 gusting 13 6.1
2018-Apr-21 02:32 345 6 gusting 13 6.1
2018-Apr-21 02:27 355 7 gusting 13 6.7
2018-Apr-21 02:22 355 6 gusting 14 6.7
2018-Apr-21 02:17 005 6 gusting 14 6.7
2018-Apr-21 02:12 015 6 gusting 14 6.7
2018-Apr-21 02:07 355 7 gusting 14 6.7
2018-Apr-21 02:02 355 7 gusting 10 6.7
2018-Apr-21 01:57 351 6 gusting 10 6.7
2018-Apr-21 01:52 355 6 gusting 9 6.7
2018-Apr-21 01:47 005 6 gusting 9 6.7
2018-Apr-21 01:42 350 6 gusting 7 6.7
2018-Apr-21 01:38 005 6 gusting 7 6.7
2018-Apr-21 01:32 005 5 gusting 7 6.7
2018-Apr-21 01:27 6.7
2018-Apr-21 01:22 355 2 gusting 4 6.7
2018-Apr-21 01:17 322 2 gusting 4 6.7
2018-Apr-21 01:12 322 1 gusting 4 6.7
2018-Apr-21 01:07 317 0 gusting 4 6.7
2018-Apr-21 01:02 317 0 gusting 4 6.7
2018-Apr-21 00:57 317 1 gusting 4 6.7
2018-Apr-21 00:52 317 2 gusting 3 6.7
2018-Apr-21 00:47 284 1 gusting 3 6.7
2018-Apr-21 00:42 285 0 gusting 1 6.7
2018-Apr-21 00:37 284 0 gusting 1 6.1
2018-Apr-21 00:32 284 6.1
2018-Apr-21 00:27 285 6.7
2018-Apr-21 00:22 285 6.7
2018-Apr-21 00:17 285 6.7
2018-Apr-21 00:12 285 6.7
2018-Apr-21 00:07 285 6.7
2018-Apr-21 00:02 284 0 gusting 5 6.7
2018-Apr-20 23:57 284 0 gusting 5 6.7
2018-Apr-20 23:52 284 1 gusting 5 6.7
2018-Apr-20 23:47 270 1 gusting 5 6.7
2018-Apr-20 23:42 163 0 gusting 2 6.7
2018-Apr-20 23:37 268 0 gusting 2 6.7
2018-Apr-20 23:32 269 0 gusting 2 6.7
2018-Apr-20 23:28 268 0 gusting 2 6.7
2018-Apr-20 23:22 227 0 gusting 3 6.7
2018-Apr-20 23:17 227 1 gusting 3 6.7
2018-Apr-20 23:12 227 1 gusting 3 6.7
2018-Apr-20 23:07 227 1 gusting 2 6.7
2018-Apr-20 23:02 329 0 gusting 0 6.7
2018-Apr-20 22:57 340 6.7
2018-Apr-20 22:52 340 6.7
2018-Apr-20 22:47 340 6.7
2018-Apr-20 22:42 340 6.7
2018-Apr-20 22:37 340 6.7
2018-Apr-20 22:32 340 6.7
2018-Apr-20 22:27 340 6.7
2018-Apr-20 22:22 340 0 gusting 2 6.7
2018-Apr-20 22:17 340 0 gusting 2 6.7
2018-Apr-20 22:12 340 6.7
2018-Apr-20 22:07 340 6.7
2018-Apr-20 22:02 340 7.2
2018-Apr-20 21:57 340 7.2
2018-Apr-20 21:52 340 7.8
2018-Apr-20 21:47 340 7.8
2018-Apr-20 21:42 340 0 gusting 5 7.8
2018-Apr-20 21:37 340 1 gusting 5 7.8
2018-Apr-20 21:32 340 3 gusting 5 7.8
2018-Apr-20 21:27 340 3 gusting 5 7.8
2018-Apr-20 21:22 340 1 gusting 1 7.8
2018-Apr-20 21:17 277 0 gusting 0 7.8
2018-Apr-20 21:12 277 7.8
2018-Apr-20 21:07 277 8.3
2018-Apr-20 21:02 277 8.3
2018-Apr-20 20:57 277 0 gusting 2 8.3
2018-Apr-20 20:52 277 0 gusting 2 8.3
2018-Apr-20 20:48 277 8.3
2018-Apr-20 20:42 277 0 gusting 2 8.3
2018-Apr-20 20:37 277 0 gusting 2 8.3
2018-Apr-20 20:32 277 8.9
2018-Apr-20 20:27 277 8.9
2018-Apr-20 20:22 277 8.9
2018-Apr-20 20:17 277 0 gusting 2 8.9
2018-Apr-20 20:12 277 0 gusting 1 8.9
2018-Apr-20 20:07 277 9.4
2018-Apr-20 20:02 277 9.4
2018-Apr-20 19:57 277 9.4
2018-Apr-20 19:52 277 10.0
2018-Apr-20 19:47 277 10.0
2018-Apr-20 19:42 277 10.0
2018-Apr-20 19:37 277 10.6
2018-Apr-20 19:32 277 10.6
2018-Apr-20 19:27 277 10.6
2018-Apr-20 19:22 277 0 gusting 6 11.1
2018-Apr-20 19:17 277 0 gusting 6 11.1
2018-Apr-20 19:12 281 0 gusting 4 11.7
2018-Apr-20 19:07 340 0 gusting 4 11.7
2018-Apr-20 19:02 340 11.7
2018-Apr-20 18:57 340 0 gusting 3 11.7
2018-Apr-20 18:52 344 0 gusting 6 11.7
2018-Apr-20 18:47 301 0 gusting 6 11.7
2018-Apr-20 18:42 300 1 gusting 8 11.7
2018-Apr-20 18:37 300 1 gusting 8 11.7
2018-Apr-20 18:32 286 2 gusting 6 11.7
2018-Apr-20 18:27 265 1 gusting 6 11.7
2018-Apr-20 18:22 267 2 gusting 6 11.7
2018-Apr-20 18:17 266 2 gusting 6 11.7
2018-Apr-20 18:12 266 2 gusting 6 12.2
2018-Apr-20 18:07 277 2 gusting 6 12.2
2018-Apr-20 18:02 268 2 gusting 6 12.2
2018-Apr-20 17:57 269 2 gusting 6 12.2
2018-Apr-20 17:52 271 1 gusting 5 12.2
2018-Apr-20 17:47 264 1 gusting 5 12.8
2018-Apr-20 17:42 264 1 gusting 5 12.8
2018-Apr-20 17:37 264 2 gusting 5 12.8
2018-Apr-20 17:32 266 1 gusting 6 12.8
2018-Apr-20 17:27 268 1 gusting 6 13.3
2018-Apr-20 17:22 271 1 gusting 6 13.3
2018-Apr-20 17:17 266 1 gusting 6 13.3
2018-Apr-20 17:12 277 1 gusting 3 13.9
2018-Apr-20 17:07 277 1 gusting 3 13.9
2018-Apr-20 17:02 280 1 gusting 6 13.9
2018-Apr-20 16:57 279 1 gusting 6 14.4
2018-Apr-20 16:52 278 1 gusting 6 14.4
2018-Apr-20 16:47 271 1 gusting 6 14.4
2018-Apr-20 16:42 345 1 gusting 5 14.4
2018-Apr-20 16:37 297 1 gusting 10 15.0
2018-Apr-20 16:32 284 1 gusting 10 15.0
2018-Apr-20 16:27 299 1 gusting 10 15.0
2018-Apr-20 16:22 300 2 gusting 10 15.6
2018-Apr-20 16:17 288 3 gusting 8 15.6
2018-Apr-20 16:12 281 2 gusting 8 15.6
2018-Apr-20 16:07 299 2 gusting 9 15.6
2018-Apr-20 16:02 294 3 gusting 9 15.6
2018-Apr-20 15:57 301 3 gusting 9 16.1
2018-Apr-20 15:52 269 2 gusting 6 16.1
2018-Apr-20 15:47 268 1 gusting 6 16.1
2018-Apr-20 15:42 290 1 gusting 6 16.1
2018-Apr-20 15:38 284 1 gusting 6 16.1
2018-Apr-20 15:32 291 2 gusting 7 16.1
2018-Apr-20 15:27 275 2 gusting 7 16.1
2018-Apr-20 15:22 257 3 gusting 7 16.7
2018-Apr-20 15:17 242 3 gusting 7 16.7
2018-Apr-20 15:12 258 3 gusting 7 16.7
2018-Apr-20 15:07 277 3 gusting 7 16.7
2018-Apr-20 15:02 254 2 gusting 6 16.7
2018-Apr-20 14:57 236 1 gusting 6 16.7
2018-Apr-20 14:52 275 1 gusting 7 16.7
2018-Apr-20 14:47 295 2 gusting 7 16.7
2018-Apr-20 14:42 288 2 gusting 8 16.7
2018-Apr-20 14:37 266 3 gusting 8 16.7
2018-Apr-20 14:32 302 3 gusting 8 16.7
2018-Apr-20 14:27 283 3 gusting 8 16.7
2018-Apr-20 14:22 313 3 gusting 8 16.7
2018-Apr-20 14:17 294 3 gusting 8 16.7
2018-Apr-20 14:12 300 2 gusting 9 16.7
2018-Apr-20 14:07 300 2 gusting 9 16.7
2018-Apr-20 14:02 323 3 gusting 9 16.7
2018-Apr-20 13:57 336 3 gusting 9 16.7
2018-Apr-20 13:52 329 2 gusting 9 17.2
2018-Apr-20 13:47 320 2 gusting 9 17.2
2018-Apr-20 13:42 285 1 gusting 7 17.8
2018-Apr-20 13:37 295 1 gusting 7 17.8
2018-Apr-20 13:32 296 1 gusting 6 17.8
2018-Apr-20 13:27 336 1 gusting 6 17.8
2018-Apr-20 13:22 292 1 gusting 9 17.8
2018-Apr-20 13:17 223 1 gusting 9 17.2
2018-Apr-20 13:12 273 1 gusting 7 17.2
2018-Apr-20 13:07 268 1 gusting 7 17.2
2018-Apr-20 13:02 296 1 gusting 8 16.7
2018-Apr-20 12:57 311 2 gusting 8 16.7
2018-Apr-20 12:52 269 2 gusting 8 16.1
2018-Apr-20 12:47 259 1 gusting 8 16.1
2018-Apr-20 12:42 331 2 gusting 8 16.1
2018-Apr-20 12:38 222 2 gusting 8 16.1
2018-Apr-20 12:32 167 1 gusting 10 16.1
2018-Apr-20 12:27 246 1 gusting 10 16.1
2018-Apr-20 12:22 275 2 gusting 9 15.6
2018-Apr-20 12:17 306 2 gusting 9 15.6
2018-Apr-20 12:12 307 1 gusting 9 15.6
2018-Apr-20 12:07 296 2 gusting 9 15.6
2018-Apr-20 12:02 307 3 gusting 8 15.6
2018-Apr-20 11:57 291 3 gusting 8 15.6
2018-Apr-20 11:52 284 3 gusting 8 15.6
2018-Apr-20 11:47 255 3 gusting 8 15.6
2018-Apr-20 11:42 198 3 gusting 8 15.0
2018-Apr-20 11:37 325 3 gusting 8 15.0
2018-Apr-20 11:32 286 3 gusting 10 15.0
2018-Apr-20 11:27 261 3 gusting 10 15.0
2018-Apr-20 11:22 263 3 gusting 11 15.0
2018-Apr-20 11:17 277 3 gusting 11 15.0
2018-Apr-20 11:12 254 2 gusting 7 15.0
2018-Apr-20 11:07 295 2 gusting 7 15.0
2018-Apr-20 11:02 265 2 gusting 9 15.0
2018-Apr-20 10:57 304 2 gusting 9 15.0
2018-Apr-20 10:52 298 2 gusting 9 15.0
2018-Apr-20 10:47 244 2 gusting 9 15.0
2018-Apr-20 10:42 257 2 gusting 10 14.4
2018-Apr-20 10:37 313 2 gusting 10 14.4
2018-Apr-20 10:32 297 3 gusting 10 14.4
2018-Apr-20 10:27 261 3 gusting 7 13.9